Regional Weather Roundup
Issued by NWS

Home | Current Version | Previous Version | Text Only | Print | Product List | Glossary Off
Versions: 1 2 3 4 5 6 7 8 9 10 11 12 13 14 15 16 17 18 19 20 21 22 23 24 25 26 27 28 29 30 31 32 33 34 35 36 37 38 39 40 41 42 43 44 45 46 47 48 49 50

000
ASUS43 KMKX 061621
RWRWI

WISCONSIN REGIONAL WEATHER ROUNDUP
NATIONAL WEATHER SERVICE MILWAUKEE/SULLIVAN WI
1000 AM CST TUE DEC 06 2016

NOTE: "FAIR" INDICATES FEW OR NO CLOUDS BELOW 12,000 FEET WITH NO
SIGNIFICANT WEATHER AND/OR OBSTRUCTIONS TO VISIBILITY.

WIZ001-002-006>008-014>016-023>028-061700-
NORTHWEST WISCONSIN

CITY           SKY/WX    TMP DP  RH WIND       PRES   REMARKS
SUPERIOR ARPT  CLOUDY    27  17  66 W18G29    29.60R WCI  13
ASHLAND        LGT SNOW  31  28  89 MISG      29.59S FOG
HAYWARD        CLOUDY    28  22  78 SW10G22   29.60F WCI  19
SIREN          CLOUDY    24  15  68 SW20G26   29.65S WCI  10
CUMBERLAND     CLOUDY    25  18  74 SW15G22   29.65S WCI  12
RICE LAKE      CLOUDY    25  19  77 SW12      29.69R WCI  14
CHETEK         CLOUDY    26  20  80 SW13G21   29.68S WCI  14
LADYSMITH      CLOUDY    29  26  89 SW13      29.66S WCI  19
EAU CLAIRE     PTSUNNY   28  23  81 SW12      29.71R WCI  18
MENOMONIE      CLOUDY    27  22  81 SW16      29.72S WCI  14
NEW RICHMOND   CLOUDY    22  14  71 SW23      29.70S WCI   6
OSCEOLA        CLOUDY    23  15  71 SW23      29.74R WCI   7
$$

WIZ003>005-009-010-017-018-061700-
NORTH CENTRAL WISCONSIN

CITY           SKY/WX    TMP DP  RH WIND       PRES   REMARKS
MANITOWISH WTR LGT SNOW  30  30 100 S13       29.59F WCI  20
ARBOR VITAE    LGT SNOW  32  30  92 S13       29.61F WCI  22
WOODRUFF       LGT SNOW  32  30  92 S13       29.61F WCI  22
RHINELANDER    CLOUDY    31  30  96 S8G18     29.64F FOG     WCI  23
EAGLE RIVER    CLOUDY    30  29  96 S9G17     29.62F FOG     WCI  22
LAND O LAKES   CLOUDY    32  29  90 S14G20    29.62F FOG     WCI  22
PHILLIPS       LGT SNOW  29  28  96 SW8       29.62R VSB 1   WCI  21
TOMAHAWK       LGT SNOW  30  28  94 S5        29.65S VSB 1   WCI  25
MEDFORD        LGT SNOW  29  28  95 S9        29.64F VSB 3/4 WCI  21
MERRILL        LGT SNOW  31  30  99 S7        29.67F VSB 3/4 WCI  24
$$

WIZ029-030-035-036-043>047-061700-
CENTRAL WISCONSIN

CITY           SKY/WX    TMP DP  RH WIND       PRES   REMARKS
WAUSAU         LGT SNOW  30  29  96 S9        29.68R FOG     WCI  22
MOSINEE        LGT SNOW  30  30 100 S10       29.70S VSB 1   WCI  21
MARSHFIELD     SNOW      30  29  96 S10       29.67S VSB 1/2 WCI  21
STEVENS POINT  CLOUDY    29  29 100 S8        29.71S FOG     WCI  21
WAUPACA        CLOUDY    33  31  92 CALM      29.74S FOG
WAUTOMA        CLOUDY    32  30  92 S7        29.75S FOG     WCI  26
WISC RAPIDS    LGT SNOW  32  31  96 S7        29.72S VSB 1   WCI  26
CAMP DOUGLAS   LGT SNOW  32  30  93 S6        29.73R FOG     WCI  26
$$

WIZ011>013-019>022-031-037>040-048>050-061700-
NORTHEAST WISCONSIN

CITY           SKY/WX    TMP DP  RH WIND       PRES   REMARKS
ANTIGO         FOG       29  29 100 S12       29.69S VSB 1   WCI  19
SHAWANO        CLOUDY    35  32  90 SW6       29.74S FOG     WCI  30
OCONTO         CLOUDY    38  33  81 S7        29.75F WCI  33
STURGEON BAY   CLOUDY    38  33  82 S14G21    29.76F WCI  30
GREEN BAY      CLOUDY    37  35  92 SW7       29.75F FOG     WCI  32
MANITOWOC      CLOUDY    39  33  79 S16       29.77F WCI  30
APPLETON       FOG       32  32 100 SW7       29.73F VSB 1   WCI  26
CLINTONVILLE   CLOUDY    32  30  93 S12       29.74R WCI  23
OSHKOSH        CLOUDY    33  32  96 S8        29.74F FOG     WCI  26
$$

WIZ032>034-041-042-053>061-061700-
SOUTHWEST WISCONSIN

CITY           SKY/WX    TMP DP  RH WIND       PRES   REMARKS
LA CROSSE      CLOUDY    32  26  78 W12       29.77R WCI  23
SPARTA         LGT SNOW  32  31  96 W7        29.75R WCI  26
VIROQUA        CLOUDY    29  25  84 W15G21    29.76R WCI  18
BOSCOBEL       LGT SNOW  34  30  85 W15       29.80R FOG     WCI  24
PRAIRIE DU CHI CLOUDY    32  25  74 W12       29.82R WCI  23
PLATTEVILLE    CLOUDY    33  33 100 SW9       29.78R VSB 1   WCI  25
$$

WIZ056-057-062-063-064-067-068-061700-
SOUTH CENTRAL WISCONSIN

CITY           SKY/WX    TMP DP  RH WIND       PRES   REMARKS
REEDSBURG      LGT RAIN  32  32 100 S8        29.75R WCI  25
BARABOO/DELLS  CLOUDY    32  31  96 S7        29.74S FOG     WCI  26
LONE ROCK      LGT SNOW  34  31  88 SW6       29.78R FOG     WCI  29
MINERAL POINT  FOG       34  34 100 SW6       29.77R VSB 1/4 WCI  29
MADISON        CLOUDY    32  31  96 S6        29.78R FOG     WCI  26
MIDDLETON      NOT AVBL
WATERTOWN      CLOUDY    32  32 100 S6        29.75F FOG     WCI  27
MONROE         CLOUDY    32  32 100 S6        29.77R FOG     WCI  26
JANESVILLE     CLOUDY    34  34 100 CALM      29.78S FOG
$$

WIZ051-052-058>065-066-070>072-061700-
SOUTHEAST WISCONSIN

CITY           SKY/WX    TMP DP  RH WIND       PRES   REMARKS
MILWAUKEE      PTSUNNY   40  35  83 SW5       29.77F HAZE
WAUKESHA       CLOUDY    34  32  93 W5        29.78S FOG     WCI  30
MILWAUKEE/TIMM CLOUDY    37  34  87 SW3       29.78F FOG
RACINE         CLOUDY    39  34  82 VRB3      29.78F
BURLINGTON     CLOUDY    34  33  97 CALM      29.78S FOG
KENOSHA        CLOUDY    35  33  92 W5        29.77F FOG     WCI  31
FOND DU LAC    PTSUNNY   34  31  88 S8        29.73F FOG     WCI  27
SHEBOYGAN      CLOUDY    39  33  79 S10       29.76F WCI  32
WEST BEND      CLOUDY    36  34  93 S3        29.76F FOG
JUNEAU         CLOUDY    32  32  99 S8        29.76F FOG     WCI  25
$$

LSZ147-162-061700-
LAKE SUPERIOR

STATION/POSITION TIME  TEMP    WIND        PRES    WAVE
                       AIR SEA DIR/SP/G            HT/PER
                 (UTC) (F)     (DEG/KT/KT) (MB)    (FT/S)
DEVILS ISLAND    1600   33     200/ 14/ 20 1002.1F
PORT WING        1530   31     200/  9/ 16 1002.0S
SAXON HARBOR     1540   35     180/  5/ 10 1002.4R
$$

LMZ867-665-643>646-061700-
LAKE MICHIGAN

STATION/POSITION TIME  TEMP    WIND        PRES    WAVE
                       AIR SEA DIR/SP/G            HT/PER
                 (UTC) (F)     (DEG/KT/KT) (MB)    (FT/S)
CHAMBERS ISLAND  1540   40     140/  6/ 14 1007.5F
NORTHPORT PIER   1540   39     150/ 15/ 20 1008.1F
SISTER BAY       1539   41     190/ 15/ 22   N/A
ALGOMA LAKESHORE 1536          200/ 21/ 23   N/A
KEWAUNEE LAKESHO 1554   39     170/ 19/ 22 1007.8F
SHEBOYGAN LAKESH 1600   39     160/ 16/ 18 1008.0F
PORT WASHINGTON  1530   41     150/ 10/ 13 1009.1S
MILWAUKEE LAKESH 1600   40     230/  6/  7   N/A
KENOSHA   LAKESH 1600   40     170/  4/  8 1008.1
$$

TC  - TEMPERATURE IN CELSIUS
VSB - VISIBILITY IN STATUTE MILES
WCI - WIND CHILL INDEX
HX  - HEAT INDEX




USA.gov is the U.S. government's official web portal to all federal, state and local government web resources and services.